Regional Weather Roundup
Issued by NWS

Home | Current Version | Previous Version | Text Only | Print | Product List | Glossary Off
Versions: 1 2 3 4 5 6 7 8 9 10 11 12 13 14 15 16 17 18 19 20 21 22 23 24 25 26 27 28 29 30 31 32 33 34 35 36 37 38 39 40 41 42 43 44 45 46 47 48 49 50

000
ASUS43 KFSD 311902
RWRSD

WEATHER ROUNDUP FOR SOUTH DAKOTA
NATIONAL WEATHER SERVICE SIOUX FALLS SD
200 PM CDT THU JUL 31 2014

NOTE: "FAIR" INDICATES FEW OR NO CLOUDS BELOW 12,000 FEET WITH NO
SIGNIFICANT WEATHER AND/OR OBSTRUCTIONS TO VISIBILITY.


SDZ001>005-009-010-012>017-312000-
NORTHWEST AND NORTH CENTRAL SOUTH DAKOTA

CITY           SKY/WX    TMP DP  RH WIND       PRES   REMARKS
BUFFALO          N/A     86  47  25 VRB3      30.07F
FAITH            N/A     84  49  29 CALM      30.10F
MOBRIDGE         N/A     83  58  42 VRB3      30.05S
$$

SDZ012>016-024>037-041>051-057-063-072>074-312000-
SOUTHWEST AND SOUTH CENTRAL SOUTH DAKOTA

CITY           SKY/WX    TMP DP  RH WIND       PRES   REMARKS
RAPID CTY ARPT SUNNY     81  50  33 VRB3      30.16F
PIERRE         SUNNY     82  54  37 MISG      30.05F
CUSTER         PTSUNNY   75  46  35 VRB6      30.29F
ELLSWORTH AFB  SUNNY     82  49  32 NE3       30.16F
PHILIP         SUNNY     88  49  25 N9G18     30.08F
PINE RIDGE     SUNNY     81  52  36 E5        30.17F
WINNER         FAIR      85  53  33 NE12      30.07F
$$

SDZ004>011-016>023-039-040-312000-
NORTHEAST SOUTH DAKOTA

CITY           SKY/WX    TMP DP  RH WIND       PRES   REMARKS
ABERDEEN       MOSUNNY   79  53  40 NE7       30.06F
WATERTOWN      PTSUNNY   78  52  40 VRB3      30.07F
SISSETON         N/A     81  58  45 N7        30.04S
$$

SDZ017-020-022-023-036>040-048>070-312000-
SOUTHEAST SOUTH DAKOTA

CITY           SKY/WX    TMP DP  RH WIND       PRES   REMARKS
SIOUX FALLS    PTSUNNY   77  59  53 NW6       30.07S
HURON          PTSUNNY   81  52  36 VRB3      30.06S
CHAMBERLAIN    PTSUNNY   83  57  41 NE6       30.07S
MITCHELL       PTSUNNY   78  63  59 CALM      30.08S
YANKTON        MOSUNNY   73  64  73 NE9       30.08R
$$

ABBREVIATIONS USED IN REMARKS
   TC - TEMPERATURE IN CELSIUS
  WCI - WIND CHILL INDEX
   HX - HEAT INDEX
  VSB - VISIBILITY




USA.gov is the U.S. government's official web portal to all federal, state and local government web resources and services.